TimeEDT,TemperatureF,Dew PointF,Humidity,Sea Level PressureIn,VisibilityMPH,Wind Direction,Wind SpeedMPH,Gust SpeedMPH,PrecipitationIn,Events,Conditions,WindDirDegrees,DateUTC
12:53 AM,30.9,23.0,72,29.91,10.0,SE,6.9,-,N/A,,Clear,140,2014-03-18 04:53:00
1:53 AM,30.0,23.0,75,29.90,10.0,SSE,5.8,-,N/A,,Clear,150,2014-03-18 05:53:00
2:53 AM,30.0,23.0,75,29.90,10.0,SSE,3.5,-,N/A,,Clear,150,2014-03-18 06:53:00
3:53 AM,28.0,23.0,81,29.90,9.0,SE,3.5,-,N/A,,Clear,140,2014-03-18 07:53:00
4:53 AM,26.1,21.9,84,29.91,8.0,Calm,Calm,-,N/A,,Clear,0,2014-03-18 08:53:00
5:53 AM,24.1,19.9,84,29.93,7.0,Calm,Calm,-,N/A,,Clear,0,2014-03-18 09:53:00
6:53 AM,23.0,21.0,92,29.94,6.0,ESE,3.5,-,N/A,,Clear,120,2014-03-18 10:53:00
7:53 AM,23.0,19.9,88,29.94,5.0,ESE,5.8,-,N/A,,Clear,110,2014-03-18 11:53:00
8:53 AM,30.9,25.0,79,29.94,7.0,SE,6.9,-,N/A,,Clear,140,2014-03-18 12:53:00
9:53 AM,36.0,28.9,76,29.93,9.0,SSE,8.1,-,N/A,,Clear,150,2014-03-18 13:53:00
10:53 AM,41.0,30.9,67,29.94,10.0,SSE,12.7,-,N/A,,Clear,150,2014-03-18 14:53:00
11:53 AM,44.1,32.0,63,29.95,10.0,SE,13.8,-,N/A,,Clear,130,2014-03-18 15:53:00
12:53 PM,45.0,32.0,60,29.94,10.0,SSE,11.5,-,N/A,,Clear,160,2014-03-18 16:53:00
1:53 PM,48.9,33.1,54,29.95,10.0,SE,11.5,16.1,N/A,,Clear,130,2014-03-18 17:53:00
2:53 PM,51.1,33.1,50,29.92,10.0,SE,15.0,20.7,N/A,,Clear,140,2014-03-18 18:53:00
3:53 PM,52.0,33.1,49,29.91,10.0,South,13.8,20.7,N/A,,Clear,180,2014-03-18 19:53:00
4:53 PM,54.0,32.0,43,29.88,10.0,South,12.7,23.0,N/A,,Clear,180,2014-03-18 20:53:00
5:53 PM,55.0,34.0,45,29.84,10.0,SE,15.0,23.0,N/A,,Clear,130,2014-03-18 21:53:00
6:53 PM,53.1,35.1,50,29.83,10.0,SSE,11.5,19.6,N/A,,Clear,160,2014-03-18 22:53:00
7:53 PM,50.0,36.0,59,29.82,10.0,SSE,9.2,-,N/A,,Clear,150,2014-03-18 23:53:00
8:53 PM,46.9,36.0,66,29.81,10.0,SE,8.1,-,N/A,,Clear,140,2014-03-19 00:53:00
9:53 PM,46.9,36.0,66,29.78,10.0,SSE,10.4,-,N/A,,Clear,160,2014-03-19 01:53:00
10:53 PM,46.0,37.0,71,29.80,10.0,South,15.0,-,N/A,,Scattered Clouds,180,2014-03-19 02:53:00
11:01 PM,46.0,37.0,71,29.79,10.0,South,10.4,19.6,N/A,,Mostly Cloudy,170,2014-03-19 03:01:00
11:40 PM,46.0,37.9,73,29.77,10.0,SSE,11.5,-,N/A,,Partly Cloudy,160,2014-03-19 03:40:00
11:53 PM,46.0,37.9,73,29.80,10.0,South,8.1,-,N/A,,Partly Cloudy,190,2014-03-19 03:53:00